This is the latest recevied weather packets stored in our database for station/object KE8WMS. If no packets are shown the sender has not sent any weather packets the latest 10 day(s).
| Time | Temp. | Humidity | Pressure | Rain* | Wind** | Luminosity | Snow |
|---|---|---|---|---|---|---|---|
| 1778079412 | 10° C | 87% | 1008.2 hPa | 0 mm | - | 508 W/m² | - |
| 1778079109 | 10° C | 87% | 1008.2 hPa | 0 mm | - | 502 W/m² | - |
| 1778078807 | 10° C | 88% | 1008 hPa | 0 mm | - | 176 W/m² | - |
| 1778078503 | 10° C | 88% | 1008.1 hPa | 0 mm | - | 537 W/m² | - |
| 1778078201 | 10° C | 88% | 1007.7 hPa | 0 mm | - | 525 W/m² | - |
| 1778077899 | 10.56° C | 86% | 1007.7 hPa | 0 mm | - | 491 W/m² | - |
| 1778077597 | 10.56° C | 86% | 1007.8 hPa | 0 mm | - | 261 W/m² | - |
| 1778077295 | 10.56° C | 86% | 1007.4 hPa | 0 mm | - | 215 W/m² | - |
| 1778076992 | 10.56° C | 87% | 1007.5 hPa | 0 mm | - | 285 W/m² | - |
| 1778076691 | 10° C | 88% | 1007.4 hPa | 0 mm | - | 230 W/m² | - |
| 1778076388 | 10° C | 91% | 1007.3 hPa | 0 mm | - | 231 W/m² | - |
| 1778076085 | 10° C | 95% | 1007.5 hPa | 0 mm | - | 207 W/m² | - |
| 1778075782 | 8.89° C | 97% | 1007.5 hPa | 0 mm | - | 191 W/m² | - |
| 1778075478 | 8.89° C | 98% | 1007.5 hPa | 0 mm | - | 200 W/m² | - |
| 1778075175 | 8.89° C | 99% | 1007.5 hPa | 0 mm | - | 195 W/m² | - |
| 1778074870 | 8.89° C | 99% | 1007.7 hPa | 0 mm | - | 173 W/m² | - |
| 1778074568 | 8.89° C | 99% | 1007.3 hPa | 0 mm | - | 168 W/m² | - |
| 1778074265 | 8.89° C | 99% | 1007.3 hPa | 0 mm | - | 167 W/m² | - |
| 1778073962 | 8.33° C | 99% | 1007.3 hPa | 0 mm | - | 164 W/m² | - |
| 1778073659 | 8.33° C | 99% | 1007.1 hPa | 0 mm | - | 166 W/m² | - |
| 1778073356 | 7.78° C | 99% | 1007.1 hPa | 0 mm | - | 143 W/m² | - |
| 1778073052 | 7.78° C | 99% | 1006.9 hPa | 0 mm | - | 115 W/m² | - |
| 1778072749 | 7.78° C | 99% | 1006.9 hPa | 0 mm | - | 86 W/m² | - |
| 1778072447 | 7.78° C | 99% | 1006.8 hPa | 0 mm | - | 113 W/m² | - |
| 1778072145 | 7.78° C | 99% | 1006.6 hPa | 0 mm | - | 95 W/m² | - |
* Rain latest hour (hover to see other rain measurements)
** Current wind speed in m/s (hover to see current wind gust speed)